AC4VM Weather Reports


Display with metric or nautical units.
time (UTC)temp
F
wind
direction
speed
MPH
gust
MPH
rain 1hr
in
rain 24hr
in
rain mn
in
humidity
%
barometer
mb
20260502211540 61 339 1.0 11.0 0.00 0.00 0.00 38 1012.6
20260502210039 62 28 2.0 8.0 0.00 0.00 0.00 38 1012.6
20260502204543 61 24 3.0 10.0 0.00 0.00 0.00 39 1012.4
20260502203037 62 25 4.0 11.0 0.00 0.00 0.00 39 1012.6
20260502201545 62 322 3.0 10.0 0.00 0.00 0.00 37 1012.8
20260502200035 63 253 1.0 7.0 0.00 0.00 0.00 39 1012.8
20260502194534 62 311 2.0 8.0 0.00 0.00 0.00 40 1013.0
20260502193034 61 343 1.0 6.0 0.00 0.00 0.00 35 1013.1
20260502191538 62 345 6.0 16.0 0.00 0.00 0.00 38 1013.1
20260502190037 62 273 3.0 12.0 0.00 0.00 0.00 36 1013.0
20260502184545 62 289 4.0 11.0 0.00 0.00 0.00 38 1013.2
20260502183038 63 66 3.0 11.0 0.00 0.00 0.00 37 1013.3
20260502181539 62 23 6.0 14.0 0.00 0.00 0.00 38 1013.4
20260502163023 61 359 5.0 13.0 0.00 0.00 0.00 46 1014.5
20260502161522 62 334 4.0 11.0 0.00 0.00 0.00 43 1014.5
20260502151517 59 37 3.0 13.0 0.00 0.00 0.00 45 1014.2
20260502123003 52 339 4.0 11.0 0.00 0.00 0.00 63 1013.9
20260502121601 51 0.0 0.0 0.00 0.00 0.00 64 1014.0
20260502114600 50 329 3.0 8.0 0.00 0.00 0.00 66 1013.9
20260502113056 50 360 3.0 8.0 0.00 0.00 0.00 66 1013.5
20260502111604 50 40 3.0 6.0 0.00 0.00 0.00 67 1013.3
20260502110055 50 332 1.0 5.0 0.00 0.00 0.00 66 1013.5
20260502104550 50 32 1.0 5.0 0.00 0.00 0.00 65 1013.4
20260502103049 50 12 2.0 7.0 0.00 0.00 0.00 65 1013.4
20260502101552 50 327 2.0 9.0 0.00 0.00 0.00 64 1013.2
20260502071528 53 4 2.0 7.0 0.00 0.00 0.00 62 1013.7
20260502070025 53 277 2.0 5.0 0.00 0.00 0.00 61 1013.4
20260502064524 53 333 4.0 9.0 0.00 0.00 0.00 59 1013.5
20260502063027 54 341 5.0 10.0 0.00 0.00 0.00 58 1013.5
20260502061519 54 327 5.0 10.0 0.00 0.00 0.00 57 1013.6
20260502060017 54 33 2.0 12.0 0.00 0.00 0.00 56 1013.6
20260502054517 54 360 2.0 13.0 0.00 0.00 0.00 55 1013.7
20260502053014 55 6 5.0 10.0 0.00 0.00 0.00 54 1013.5
20260502051512 56 339 5.0 13.0 0.00 0.00 0.00 52 1013.6
20260502050013 56 23 2.0 10.0 0.00 0.00 0.00 51 1013.4
20260502044509 56 0.0 0.0 0.00 0.00 0.00 52 1013.5
20260502043004 56 0.0 0.0 0.00 0.00 0.00 54 1013.2
20260502041634 57 0.0 0.0 0.00 0.00 0.00 55 1013.4
20260502040057 57 355 1.0 3.0 0.00 0.00 0.00 57 1013.3
20260502034556 57 331 2.0 6.0 0.00 0.00 0.00 56 1013.1
20260502033106 58 353 2.0 5.0 0.00 0.00 0.00 60 1013.0
20260502031555 58 314 0.0 4.0 0.00 0.00 0.00 61 1013.1
20260502030056 58 313 1.0 3.0 0.00 0.00 0.00 62 1013.0
20260502024555 59 308 1.0 3.0 0.00 0.00 0.00 63 1012.9
20260502023057 59 297 2.0 9.0 0.00 0.00 0.00 62 1012.8
20260502021554 59 303 3.0 8.0 0.00 0.00 0.00 61 1012.7
20260502020055 60 237 4.0 10.0 0.00 0.00 0.00 61 1012.8
20260502014553 60 293 3.0 10.0 0.00 0.00 0.00 61 1012.4
20260502013051 61 293 3.0 9.0 0.00 0.00 0.00 59 1012.0
20260502011551 61 267 5.0 10.0 0.00 0.00 0.00 57 1011.7
20260502010058 62 335 3.0 8.0 0.00 0.00 0.00 54 1011.4
20260502004552 62 259 2.0 9.0 0.00 0.00 0.00 52 1011.2
20260502003049 62 267 2.0 7.0 0.00 0.00 0.00 51 1010.9
20260502001558 63 291 2.0 5.0 0.00 0.00 0.00 50 1010.8
20260502000049 63 250 5.0 9.0 0.00 0.00 0.00 48 1010.7
20260501234549 64 268 3.0 9.0 0.00 0.00 0.00 47 1010.8
20260501233100 65 268 2.0 12.0 0.00 0.00 0.00 48 1010.4
20260501231559 65 269 3.0 6.0 0.00 0.00 0.00 46 1010.0
20260501230051 66 293 3.0 10.0 0.00 0.00 0.00 46 1010.2
20260501224548 67 270 2.0 9.0 0.00 0.00 0.00 43 1010.0
20260501223110 67 265 2.0 12.0 0.00 0.00 0.00 44 1009.8
20260501221544 67 275 3.0 12.0 0.00 0.00 0.00 46 1010.0
20260501220042 68 275 2.0 9.0 0.00 0.00 0.00 43 1010.4
20260501214541 68 237 3.0 10.0 0.00 0.00 0.00 44 1010.5
20260501213040 69 248 7.0 15.0 0.00 0.00 0.00 44 1010.6